Stündliche Wetter Czyste

Heute, 28 Oktober, Mittwoch

Zeit Temperatur Niederschläge Wind Luftdruck Luftfeuchtigkeit
00:00 +7°C° 0 mm 5 m/S 751 mmHg 77%
01:00 +7°C° 0 mm 5 m/S 751 mmHg 77%
02:00 +7°C° 0 mm 5 m/S 750 mmHg 77%
03:00 +7°C° 0 mm 5 m/S 750 mmHg 77%
04:00 +7°C° 0 mm 5 m/S 750 mmHg 77%
05:00 +7°C° 0 mm 6 m/S 750 mmHg 75%
06:00 +7°C° 0 mm 6 m/S 750 mmHg 73%
07:00 +8°C° 0 mm 6 m/S 750 mmHg 71%
08:00 +8°C° 0 mm 6 m/S 750 mmHg 73%
09:00 +8°C° 0 mm 6 m/S 751 mmHg 75%
10:00 +8°C° 0 mm 6 m/S 751 mmHg 77%
11:00 +9°C° 0.1 mm 6 m/S 751 mmHg 78%
12:00 +9°C° 0.1 mm 6 m/S 751 mmHg 78%
13:00 +9°C° 0.1 mm 5 m/S 750 mmHg 79%
14:00 +9°C° 0.1 mm 5 m/S 751 mmHg 81%
15:00 +10°C° 0.1 mm 5 m/S 751 mmHg 82%
16:00 +11°C° 0.1 mm 4 m/S 751 mmHg 84%
17:00 +11°C° 0 mm 4 m/S 751 mmHg 84%
18:00 +10°C° 0 mm 4 m/S 751 mmHg 84%
19:00 +10°C° 0 mm 4 m/S 751 mmHg 84%
20:00 +10°C° 0.1 mm 4 m/S 751 mmHg 85%
21:00 +8°C° 0.1 mm 4 m/S 752 mmHg 87%
22:00 +8°C° 0.1 mm 4 m/S 752 mmHg 88%
23:00 +8°C° 0 mm 4 m/S 752 mmHg 87%

Morgen, 29 Oktober, Donnerstag

Zeit Temperatur Niederschläge Wind Luftdruck Luftfeuchtigkeit
00:00 +7°C° 0 mm 4 m/S 752 mmHg 85%
01:00 +7°C° 0 mm 4 m/S 752 mmHg 84%
02:00 +7°C° 0 mm 4 m/S 752 mmHg 84%
03:00 +7°C° 0 mm 4 m/S 751 mmHg 83%
04:00 +7°C° 0 mm 5 m/S 751 mmHg 83%
05:00 +7°C° 0.2 mm 5 m/S 751 mmHg 83%
06:00 +8°C° 0.2 mm 5 m/S 751 mmHg 84%
07:00 +8°C° 0.2 mm 5 m/S 751 mmHg 85%
08:00 +9°C° 0 mm 6 m/S 751 mmHg 82%
09:00 +9°C° 0 mm 6 m/S 751 mmHg 78%
10:00 +10°C° 0 mm 6 m/S 752 mmHg 75%
11:00 +10°C° 0.1 mm 6 m/S 752 mmHg 72%
12:00 +10°C° 0.1 mm 6 m/S 752 mmHg 68%
13:00 +11°C° 0.1 mm 6 m/S 752 mmHg 65%
14:00 +10°C° 0.1 mm 6 m/S 753 mmHg 67%
15:00 +9°C° 0.1 mm 5 m/S 753 mmHg 70%
16:00 +10°C° 0.1 mm 4 m/S 754 mmHg 73%
17:00 +8°C° 0 mm 4 m/S 754 mmHg 75%
18:00 +8°C° 0 mm 4 m/S 755 mmHg 77%
19:00 +7°C° 0 mm 4 m/S 755 mmHg 79%
20:00 +7°C° 0 mm 4 m/S 756 mmHg 81%
21:00 +6°C° 0 mm 4 m/S 756 mmHg 84%
22:00 +6°C° 0 mm 4 m/S 757 mmHg 86%
23:00 +6°C° 0 mm 4 m/S 757 mmHg 87%

übermorgen, 30 Oktober, Freitag

Zeit Temperatur Niederschläge Wind Luftdruck Luftfeuchtigkeit
00:00 +5°C° 0 mm 3 m/S 757 mmHg 88%
01:00 +5°C° 0 mm 3 m/S 757 mmHg 89%
02:00 +5°C° 0 mm 3 m/S 757 mmHg 88%
03:00 +5°C° 0 mm 3 m/S 756 mmHg 87%
04:00 +5°C° 0 mm 3 m/S 756 mmHg 86%
05:00 +6°C° 0.6 mm 4 m/S 756 mmHg 89%
06:00 +6°C° 0.6 mm 4 m/S 756 mmHg 91%
07:00 +6°C° 0.6 mm 4 m/S 755 mmHg 94%
08:00 +7°C° 1.5 mm 4 m/S 755 mmHg 95%
09:00 +8°C° 1.5 mm 4 m/S 755 mmHg 96%
10:00 +8°C° 1.5 mm 4 m/S 754 mmHg 97%
11:00 +9°C° 1.1 mm 5 m/S 754 mmHg 95%
12:00 +10°C° 1.1 mm 5 m/S 754 mmHg 93%
13:00 +11°C° 1.1 mm 6 m/S 754 mmHg 92%
14:00 +11°C° 0.1 mm 6 m/S 754 mmHg 92%
15:00 +11°C° 0.1 mm 6 m/S 754 mmHg 91%
16:00 +11°C° 0.1 mm 6 m/S 754 mmHg 91%
17:00 +12°C° 0.4 mm 5 m/S 755 mmHg 92%
18:00 +12°C° 0.4 mm 5 m/S 755 mmHg 94%
19:00 +12°C° 0.4 mm 5 m/S 756 mmHg 95%
20:00 +12°C° 0.4 mm 5 m/S 756 mmHg 94%
21:00 +13°C° 0.4 mm 5 m/S 757 mmHg 94%
22:00 +13°C° 0.4 mm 4 m/S 757 mmHg 94%
23:00 +13°C° 0 mm 4 m/S 757 mmHg 94%

31 Oktober, Samstag

Zeit Temperatur Niederschläge Wind Luftdruck Luftfeuchtigkeit
00:00 +13°C° 0 mm 4 m/S 758 mmHg 95%
01:00 +13°C° 0 mm 4 m/S 758 mmHg 95%
02:00 +13°C° 0 mm 3 m/S 758 mmHg 95%
03:00 +12°C° 0 mm 3 m/S 759 mmHg 96%
04:00 +13°C° 0 mm 2 m/S 759 mmHg 96%
05:00 +13°C° 0 mm 2 m/S 759 mmHg 96%
06:00 +13°C° 0 mm 2 m/S 760 mmHg 97%
07:00 +13°C° 0 mm 1 m/S 760 mmHg 97%
08:00 +13°C° 0 mm 1 m/S 760 mmHg 95%
09:00 +14°C° 0 mm 1 m/S 761 mmHg 94%
10:00 +14°C° 0 mm 1 m/S 761 mmHg 92%
11:00 +15°C° 0 mm 1 m/S 761 mmHg 91%
12:00 +15°C° 0 mm 2 m/S 761 mmHg 90%
13:00 +15°C° 0 mm 2 m/S 761 mmHg 89%
14:00 +15°C° 0 mm 2 m/S 761 mmHg 91%
15:00 +15°C° 0 mm 2 m/S 760 mmHg 92%
16:00 +14°C° 0 mm 2 m/S 760 mmHg 94%
17:00 +14°C° 0 mm 2 m/S 760 mmHg 95%
18:00 +12°C° 0 mm 3 m/S 760 mmHg 96%
19:00 +12°C° 0 mm 3 m/S 760 mmHg 97%
20:00 +12°C° 0 mm 3 m/S 760 mmHg 96%
21:00 +11°C° 0 mm 3 m/S 760 mmHg 96%
22:00 +11°C° 0 mm 4 m/S 759 mmHg 95%
23:00 +11°C° 0 mm 4 m/S 759 mmHg 95%

1 November, Sonntag

Zeit Temperatur Niederschläge Wind Luftdruck Luftfeuchtigkeit
00:00 +11°C° 0 mm 4 m/S 759 mmHg 95%
01:00 +10°C° 0 mm 5 m/S 759 mmHg 94%
02:00 +10°C° 0 mm 5 m/S 758 mmHg 94%
03:00 +10°C° 0 mm 5 m/S 758 mmHg 93%
04:00 +10°C° 0 mm 5 m/S 758 mmHg 93%
05:00 +9°C° 0 mm 5 m/S 757 mmHg 93%
06:00 +9°C° 0 mm 5 m/S 757 mmHg 93%
07:00 +9°C° 0 mm 5 m/S 757 mmHg 93%
08:00 +10°C° 0 mm 5 m/S 757 mmHg 89%
09:00 +11°C° 0 mm 6 m/S 756 mmHg 86%
10:00 +13°C° 0 mm 6 m/S 756 mmHg 82%
11:00 +14°C° 0 mm 6 m/S 756 mmHg 79%
12:00 +15°C° 0 mm 6 m/S 756 mmHg 76%
13:00 +16°C° 0 mm 6 m/S 756 mmHg 73%
14:00 +15°C° 0 mm 6 m/S 755 mmHg 75%
15:00 +15°C° 0 mm 5 m/S 755 mmHg 77%
16:00 +14°C° 0 mm 5 m/S 755 mmHg 78%
17:00 +14°C° 0 mm 5 m/S 755 mmHg 79%
18:00 +14°C° 0 mm 5 m/S 755 mmHg 79%
19:00 +14°C° 0 mm 5 m/S 755 mmHg 80%
20:00 +13°C° 0 mm 5 m/S 755 mmHg 79%
21:00 +13°C° 0 mm 5 m/S 755 mmHg 79%
22:00 +13°C° 0 mm 5 m/S 755 mmHg 78%
23:00 +13°C° 0 mm 5 m/S 755 mmHg 77%

2 November, Montag

Zeit Temperatur Niederschläge Wind Luftdruck Luftfeuchtigkeit
00:00 +13°C° 0 mm 5 m/S 755 mmHg 75%
01:00 +13°C° 0 mm 5 m/S 755 mmHg 74%
02:00 +13°C° 0 mm 5 m/S 754 mmHg 75%
03:00 +13°C° 0 mm 6 m/S 754 mmHg 75%
04:00 +13°C° 0 mm 6 m/S 754 mmHg 76%
05:00 +14°C° 0 mm 6 m/S 754 mmHg 76%
06:00 +14°C° 0 mm 5 m/S 754 mmHg 75%
07:00 +14°C° 0 mm 5 m/S 754 mmHg 75%
08:00 +14°C° 0 mm 6 m/S 754 mmHg 74%
09:00 +15°C° 0 mm 6 m/S 755 mmHg 73%
10:00 +15°C° 0 mm 6 m/S 755 mmHg 71%
11:00 +16°C° 0 mm 6 m/S 755 mmHg 71%
12:00 +17°C° 0 mm 6 m/S 755 mmHg 70%
13:00 +19°C° 0 mm 6 m/S 755 mmHg 70%
14:00 +17°C° 0 mm 5 m/S 755 mmHg 71%
15:00 +17°C° 0 mm 5 m/S 755 mmHg 73%
16:00 +16°C° 0 mm 5 m/S 755 mmHg 74%
17:00 +16°C° 0 mm 5 m/S 755 mmHg 76%
18:00 +15°C° 0 mm 5 m/S 755 mmHg 77%
19:00 +15°C° 0 mm 5 m/S 755 mmHg 78%
20:00 +14°C° 0 mm 5 m/S 756 mmHg 77%
21:00 +14°C° 0 mm 5 m/S 756 mmHg 76%
22:00 +14°C° 0 mm 5 m/S 756 mmHg 75%
23:00 +13°C° 0 mm 4 m/S 756 mmHg 75%
Mehr zeigen

Wir brauchen deine Erlaubnis

Meteoprog und unser Service Anbieter werden persönliche Daten aufbewahren, so wie Cookies, Geräte Bezeichnung oder ähnliche Technologien von deinem Gerät und Prozess, so wie Persönliche Daten Inhalte und Werbungen, genauso wie social Media und den Verkehr zu analysieren.

  • Aufbewahrung und/oder Zugang zu deiner Geräte Informationen.

    Cookies, Geräte Bezeichnung oder andere Informationen, können aufbewahrt oder Zugang zu deinem Gerät erhalten, für den Grund, der oben angegeben wird.

  • Personalisierte Werbung und Inhalte, Messungen, Einblick in das Publikum und Produkt Entwicklung.

    Werbungen und Inhalte können personalisiert werden, basierend auf ein Profil. Mehr Daten können besser personalisierte Werbungen und Inhalte hinzufügen. Werbung und Inhalte können gezeigt und gemessen werden. Einblicke über das Publikum, welche die Werbung gesehen haben und den Inhalt, können abgeleitet werden. So wie Daten können genutzt werden, um es zu verbessern oder die Benutzer Erfahrung zu verbessern das System und die Software.

Wenn du “Ich stimme zu” klickst, erlaubst du uns, die Cookies zu benutzen die Geräte Bezeichnung, den Web oder ähnliche Technologien zu benutzen. Deine Settings, können in deinem Gerät bei deinem Browser geändert werden.

Für den bestimmten Zweck, berechtigten Interessen beruhen darauf, mehr als auf den Inhalt. Du kannst mehr darüber in unseren Privaten und Cookie Politik lesen.